FW8535 Weather Reports


time (UTC)temp
C
wind
direction
speed
KPH
gust
KPH
rain 1hr
cm
rain 24hr
cm
rain mn
cm
humidity
%
barometer
mb
20260903125015 16 36 0.0 4.8 0.00 0.00 0.00 81 1004.0
20260903124514 16 36 0.0 4.8 0.00 0.00 0.00 81 1003.8
20260903124014 16 36 0.0 0.0 0.00 0.00 0.00 80 1003.9
20260903123514 16 36 0.0 0.0 0.00 0.00 0.00 81 1003.9
20260903123014 16 36 0.0 0.0 0.00 0.00 0.00 81 1003.7
20260903122017 16 36 0.0 0.0 0.00 0.00 0.00 80 1003.9
20260903121528 16 36 0.0 0.0 0.00 0.00 0.00 80 1003.8
20260903121015 16 36 0.0 0.0 0.00 0.00 0.00 80 1003.7
20260903120515 16 36 0.0 0.0 0.00 0.00 0.00 79 1003.8
20260903120030 16 36 0.0 4.8 0.00 0.00 0.00 79 1003.9
20260903115513 16 36 1.6 4.8 0.00 0.00 0.00 78 1003.7
20260903115016 17 36 0.0 4.8 0.00 0.00 0.00 78 1003.7
20260903114511 17 37 1.6 6.4 0.00 0.00 0.00 77 1003.7
20260903114010 17 37 1.6 6.4 0.00 0.00 0.00 77 1003.7
20260903113510 17 20 1.6 11.3 0.00 0.00 0.00 77 1003.6
20260903113018 17 32 3.2 8.0 0.00 0.00 0.00 77 1003.4
20260903112014 17 31 3.2 8.0 0.00 0.00 0.00 75 1003.6
20260903111511 17 16 1.6 6.4 0.00 0.00 0.00 74 1003.5
20260903111012 18 16 3.2 8.0 0.00 0.00 0.00 74 1003.5
20260903110510 18 15 3.2 9.7 0.00 0.00 0.00 74 1003.5
20260903110010 18 46 4.8 9.7 0.00 0.00 0.00 74 1003.6
20260903105507 18 9 4.8 14.5 0.00 0.00 0.00 73 1003.4
20260903105007 18 44 6.4 14.5 0.00 0.00 0.00 73 1003.3
20260903104507 18 42 4.8 14.5 0.00 0.00 0.00 73 1003.2
20260903104006 18 38 8.0 17.7 0.00 0.00 0.00 73 1003.2
20260903103507 17 48 8.0 14.5 0.00 0.00 0.00 73 1003.1
20260903103006 17 51 8.0 14.5 0.00 0.00 0.00 73 1003.1
20260903102002 17 26 4.8 12.9 0.00 0.00 0.00 73 1003.2
20260903101503 17 58 4.8 12.9 0.00 0.00 0.00 73 1002.8
20260903101001 17 34 4.8 12.9 0.00 0.00 0.00 73 1002.7
20260903100502 17 27 6.4 14.5 0.00 0.00 0.00 73 1002.7
20260903100003 17 58 8.0 14.5 0.00 0.00 0.00 73 1002.4
20260903095559 17 52 6.4 11.3 0.00 0.00 0.00 72 1002.6
20260903095101 18 32 4.8 9.7 0.00 0.00 0.00 71 1002.9
20260903094558 18 38 4.8 9.7 0.00 0.00 0.00 70 1003.0
20260903094056 18 46 3.2 9.7 0.00 0.00 0.00 69 1003.0
20260903093555 18 39 4.8 16.1 0.00 0.00 0.00 69 1002.7
20260903093053 18 19 4.8 16.1 0.00 0.00 0.00 68 1002.5
20260903092654 19 48 8.0 17.7 0.00 0.00 0.00 68 1002.5
20260903092055 19 36 8.0 16.1 0.00 0.00 0.00 67 1002.3
20260903091557 19 44 6.4 17.7 0.00 0.00 0.00 67 1002.5
20260903091053 20 36 8.0 22.5 0.00 0.00 0.00 66 1002.6
20260903090550 20 42 14.5 22.5 0.00 0.00 0.00 66 1002.5
20260903090050 20 42 9.7 17.7 0.00 0.00 0.00 67 1002.5
20260903090014 20 49 8.0 17.7 0.00 0.00 0.00 68 1002.4
20260903085549 20 65 8.0 20.9 0.00 0.00 0.00 70 1002.5
20260903085049 20 5 8.0 20.9 0.00 0.00 0.00 68 1002.4
20260903084551 20 26 6.4 12.9 0.00 0.00 0.00 67 1002.6
20260903084049 20 10 6.4 17.7 0.00 0.00 0.00 67 1002.8
20260903083548 20 11 9.7 20.9 0.00 0.00 0.00 67 1002.8
20260903083047 20 30 9.7 22.5 0.00 0.00 0.00 66 1002.8
20260903082647 20 10 3.2 20.9 0.00 0.00 0.00 67 1002.9
20260903082045 20 355 3.2 20.9 0.00 0.00 0.00 67 1003.0
20260903081545 20 5 9.7 20.9 0.00 0.00 0.00 67 1003.0
20260903081042 21 302 3.2 14.5 0.00 0.00 0.00 63 1003.1
20260903080544 22 15 3.2 11.3 0.00 0.00 0.00 62 1003.1
20260903080041 22 42 1.6 4.8 0.00 0.00 0.00 71 1003.3
20260903075542 22 26 0.0 4.8 0.00 0.00 0.00 71 1003.3
20260903075043 22 26 0.0 6.4 0.00 0.00 0.00 70 1003.3
20260903074541 22 22 3.2 6.4 0.00 0.00 0.00 70 1003.2
20260903074040 22 40 0.0 8.0 0.00 0.00 0.00 69 1003.4
20260903073542 23 38 3.2 8.0 0.00 0.00 0.00 69 1003.4
20260903073039 23 316 0.0 8.0 0.00 0.00 0.00 70 1003.4
20260903072638 22 311 6.4 14.5 0.00 0.00 0.00 71 1003.2
20260903072041 22 46 8.0 14.5 0.00 0.00 0.00 71 1003.1
20260903071552 22 24 1.6 9.7 0.00 0.00 0.00 71 1003.1
20260903071038 22 355 1.6 11.3 0.00 0.00 0.00 71 1003.3
20260903070537 22 286 3.2 6.4 0.00 0.00 0.00 71 1003.4
20260903070036 22 267 0.0 4.8 0.00 0.00 0.00 71 1002.9
20260903065538 22 267 0.0 6.4 0.00 0.00 0.00 70 1002.8
20260903065036 22 264 1.6 14.5 0.00 0.00 0.00 70 1003.0
20260903064537 22 262 3.2 19.3 0.00 0.00 0.00 70 1003.0
20260903064033 22 194 9.7 24.1 0.00 0.00 0.00 70 1002.8
20260903063532 22 178 8.0 25.7 0.00 0.00 0.00 69 1002.2
20260903063032 22 121 12.9 29.0 0.00 0.00 0.00 69 1001.9
20260903062632 22 124 17.7 24.1 0.00 0.00 0.00 69 1001.7
20260903062034 22 132 14.5 24.1 0.00 0.00 0.00 69 1001.8
20260903061534 23 132 17.7 25.7 0.00 0.00 0.00 69 1001.8
20260903061036 23 165 16.1 25.7 0.00 0.00 0.00 69 1001.8
20260903060534 23 139 11.3 20.9 0.00 0.00 0.00 69 1001.9
20260903060033 23 122 11.3 22.5 0.00 0.00 0.00 68 1002.0
20260903055533 22 185 8.0 19.3 0.00 0.00 0.00 68 1002.0
20260903055033 22 188 4.8 19.3 0.00 0.00 0.00 68 1002.2
20260903054535 23 182 6.4 25.7 0.00 0.00 0.00 67 1002.1
20260903054036 23 117 11.3 30.6 0.00 0.00 0.00 67 1001.7
20260903053534 23 115 16.1 30.6 0.00 0.00 0.00 67 1001.2
20260903053035 23 89 20.9 30.6 0.00 0.00 0.00 67 1001.5
20260903052632 23 134 17.7 30.6 0.00 0.00 0.00 67 1001.6
20260903052034 23 136 16.1 27.4 0.00 0.00 0.00 67 1001.5
20260903051552 23 123 14.5 27.4 0.00 0.00 0.00 67 1001.5
20260903051033 23 138 16.1 25.7 0.00 0.00 0.00 67 1001.3
20260903050537 23 107 12.9 22.5 0.00 0.00 0.00 67 1001.2
20260903050033 23 111 12.9 22.5 0.00 0.00 0.00 67 1001.4
20260903045532 23 117 9.7 20.9 0.00 0.00 0.00 67 1001.6
20260903045031 23 102 9.7 20.9 0.00 0.00 0.00 66 1002.0
20260903044539 23 106 8.0 19.3 0.00 0.00 0.00 66 1002.0
20260903044030 23 136 8.0 19.3 0.00 0.00 0.00 66 1002.7
20260903043532 23 94 9.7 19.3 0.00 0.00 0.00 66 1002.7
20260903043107 23 125 8.0 17.7 0.00 0.00 0.00 66 1003.0
20260903042027 23 144 4.8 19.3 0.00 0.00 0.00 65 1002.8
20260903041527 24 105 8.0 19.3 0.00 0.00 0.00 65 1002.9
20260903041025 24 85 8.0 20.9 0.00 0.00 0.00 64 1003.0
20260903040525 24 127 9.7 20.9 0.00 0.00 0.00 64 1002.9
20260903040026 24 114 11.3 27.4 0.00 0.00 0.00 64 1002.9
20260903035525 24 140 9.7 27.4 0.00 0.00 0.00 63 1003.0
20260903035027 24 121 16.1 25.7 0.00 0.00 0.00 63 1002.9
20260903034536 24 118 11.3 29.0 0.00 0.00 0.00 63 1002.7
20260903034025 25 116 14.5 27.4 0.00 0.00 0.00 63 1002.9
20260903033524 25 92 16.1 27.4 0.00 0.00 0.00 63 1002.8
20260903033026 25 94 11.3 22.5 0.00 0.00 0.00 63 1002.9
20260903032625 25 113 9.7 22.5 0.00 0.00 0.00 63 1002.9
20260903032026 25 138 9.7 22.5 0.00 0.00 0.00 63 1002.8
20260903031523 25 111 11.3 24.1 0.00 0.00 0.00 63 1002.9
20260903031025 25 98 9.7 27.4 0.00 0.00 0.00 63 1002.8
20260903030523 25 124 17.7 25.7 0.00 0.00 0.00 63 1002.8
20260903030023 25 114 11.3 29.0 0.00 0.00 0.00 63 1002.7
20260903025524 25 134 16.1 25.7 0.00 0.00 0.00 63 1002.8
20260903025022 25 148 16.1 32.2 0.00 0.00 0.00 63 1003.0
20260903024525 25 113 14.5 32.2 0.00 0.00 0.00 62 1002.8
20260903024022 25 126 14.5 29.0 0.00 0.00 0.00 62 1002.7
20260903023521 25 152 16.1 29.0 0.00 0.00 0.00 62 1002.8
20260903023021 25 126 11.3 25.7 0.00 0.00 0.00 62 1002.7
20260903022621 26 88 11.3 25.7 0.00 0.00 0.00 61 1002.8
20260903022022 26 175 11.3 25.7 0.00 0.00 0.00 61 1002.9
20260903021522 26 142 11.3 25.7 0.00 0.00 0.00 61 1002.9
20260903021021 26 91 9.7 25.7 0.00 0.00 0.00 60 1002.7
20260903020521 26 152 11.3 27.4 0.00 0.00 0.00 60 1002.7
20260903020024 26 130 6.4 24.1 0.00 0.00 0.00 59 1002.8
20260903015524 26 119 12.9 24.1 0.00 0.00 0.00 59 1002.7
20260903015021 26 135 12.9 20.9 0.00 0.00 0.00 59 1002.8
20260903014523 26 137 11.3 27.4 0.00 0.00 0.00 58 1002.7
20260903014020 26 119 14.5 27.4 0.00 0.00 0.00 58 1002.6
20260903013523 27 105 12.9 22.5 0.00 0.00 0.00 57 1002.6
20260903013022 27 126 11.3 22.5 0.00 0.00 0.00 57 1002.5
20260903012620 27 108 9.7 24.1 0.00 0.00 0.00 56 1002.6
20260903012020 27 116 11.3 24.1 0.00 0.00 0.00 56 1002.6
20260903011523 27 120 16.1 25.7 0.00 0.00 0.00 55 1002.7
20260903011019 27 126 14.5 25.7 0.00 0.00 0.00 54 1002.6
20260903010523 28 114 11.3 24.1 0.00 0.00 0.00 53 1002.6
20260903010020 28 107 12.9 27.4 0.00 0.00 0.00 51 1002.7
20260903005520 28 123 16.1 27.4 0.00 0.00 0.00 49 1002.6
20260903005020 28 130 17.7 27.4 0.00 0.00 0.00 49 1002.8
20260903004519 28 132 17.7 30.6 0.00 0.00 0.00 49 1002.7
20260903004019 28 128 22.5 30.6 0.00 0.00 0.00 50 1002.7
20260903003520 28 130 22.5 30.6 0.00 0.00 0.00 50 1002.5
20260903003022 28 138 12.9 29.0 0.00 0.00 0.00 50 1002.5
20260903002619 29 92 12.9 27.4 0.00 0.00 0.00 49 1002.4
20260903002015 29 126 14.5 27.4 0.00 0.00 0.00 48 1002.5
20260903001517 29 114 19.3 27.4 0.00 0.00 0.00 47 1002.5
20260903001015 29 134 16.1 27.4 0.00 0.00 0.00 47 1002.7
20260903000515 29 120 17.7 27.4 0.00 0.00 0.00 47 1002.8
20260903000014 30 138 17.7 27.4 0.00 0.00 0.00 47 1002.6
20260902235514 29 144 12.9 27.4 0.00 0.00 0.00 48 1002.8
20260902235018 29 140 17.7 29.0 0.00 0.00 0.00 48 1002.7
20260902234521 29 128 14.5 29.0 0.00 0.00 0.00 49 1002.7
20260902234014 28 127 16.1 29.0 0.00 0.00 0.00 48 1002.6
20260902233513 28 136 14.5 29.0 0.00 0.00 0.00 48 1002.7
20260902233012 28 134 20.9 29.0 0.00 0.00 0.00 48 1002.7
20260902232615 29 127 14.5 25.7 0.00 0.00 0.00 48 1002.7
20260902232013 29 165 14.5 25.7 0.00 0.00 0.00 48 1002.8
20260902231514 29 142 17.7 32.2 0.00 0.00 0.00 47 1002.8
20260902231013 29 104 17.7 37.0 0.00 0.00 0.00 47 1002.9
20260902230511 30 146 24.1 37.0 0.00 0.00 0.00 45 1002.9
20260902230012 30 140 20.9 32.2 0.00 0.00 0.00 45 1002.8
20260902225512 30 155 20.9 32.2 0.00 0.00 0.00 45 1002.9
20260902225012 30 140 20.9 30.6 0.00 0.00 0.00 45 1002.9
20260902224511 30 129 19.3 38.6 0.00 0.00 0.00 45 1003.0
20260902224011 30 149 19.3 38.6 0.00 0.00 0.00 45 1002.9
20260902223514 30 124 17.7 29.0 0.00 0.00 0.00 44 1002.8
20260902223021 30 127 19.3 33.8 0.00 0.00 0.00 44 1002.8
20260902222612 30 172 19.3 27.4 0.00 0.00 0.00 43 1003.0
20260902222037 30 176 19.3 27.4 0.00 0.00 0.00 43 1003.0
20260902221530 31 140 16.1 30.6 0.00 0.00 0.00 43 1002.9
20260902221029 30 115 16.1 30.6 0.00 0.00 0.00 44 1003.0
20260902220532 30 153 19.3 33.8 0.00 0.00 0.00 44 1003.0
20260902220029 30 138 19.3 33.8 0.00 0.00 0.00 43 1003.1
20260902215530 30 165 17.7 29.0 0.00 0.00 0.00 45 1003.0
20260902215028 30 146 24.1 29.0 0.00 0.00 0.00 44 1003.1
20260902214527 30 143 17.7 30.6 0.00 0.00 0.00 44 1003.4
20260902214033 31 138 19.3 29.0 0.00 0.00 0.00 44 1003.3
20260902213525 30 126 16.1 33.8 0.00 0.00 0.00 45 1003.4
20260902213029 30 136 19.3 33.8 0.00 0.00 0.00 46 1003.5
20260902212524 30 134 17.7 35.4 0.00 0.00 0.00 46 1003.6
20260902212006 30 145 16.1 35.4 0.00 0.00 0.00 45 1003.7
20260902211505 30 140 20.9 30.6 0.00 0.00 0.00 45 1003.8
20260902211007 30 169 20.9 30.6 0.00 0.00 0.00 46 1003.7
20260902210503 30 140 20.9 33.8 0.00 0.00 0.00 46 1003.9
20260902210003 30 146 17.7 33.8 0.00 0.00 0.00 45 1003.8
20260902205504 30 131 17.7 30.6 0.00 0.00 0.00 46 1003.8
20260902205002 30 146 16.1 33.8 0.00 0.00 0.00 47 1004.0
20260902204600 30 113 19.3 33.8 0.00 0.00 0.00 46 1004.0
20260902204058 30 146 16.1 33.8 0.00 0.00 0.00 46 1004.2
20260902203601 30 117 25.7 33.8 0.00 0.00 0.00 47 1004.3
20260902203105 30 150 16.1 37.0 0.00 0.00 0.00 48 1004.3
20260902202556 30 138 20.9 35.4 0.00 0.00 0.00 48 1004.6
20260902201607 30 146 20.9 33.8 0.00 0.00 0.00 47 1004.6
20260902201103 30 137 14.5 33.8 0.00 0.00 0.00 48 1004.5
20260902200559 29 94 22.5 33.8 0.00 0.00 0.00 48 1004.7
20260902200133 29 132 20.9 33.8 0.00 0.00 0.00 49 1004.8
20260902195557 29 140 20.9 33.8 0.00 0.00 0.00 49 1004.7
20260902195055 29 170 17.7 33.8 0.00 0.00 0.00 49 1004.9
20260902194555 29 136 17.7 37.0 0.00 0.00 0.00 49 1004.9
20260902194056 29 155 20.9 38.6 0.00 0.00 0.00 50 1005.0
20260902193552 28 136 16.1 33.8 0.00 0.00 0.00 50 1005.0
20260902193051 29 149 17.7 32.2 0.00 0.00 0.00 50 1005.1
20260902192549 28 150 17.7 35.4 0.00 0.00 0.00 51 1005.1
20260902192019 28 109 19.3 35.4 0.00 0.00 0.00 51 1005.1
20260902191517 28 148 22.5 41.8 0.00 0.00 0.00 51 1005.4
20260902191015 28 138 25.7 41.8 0.00 0.00 0.00 52 1005.4
20260902190514 28 107 20.9 40.2 0.00 0.00 0.00 51 1005.6
20260902190024 28 167 24.1 40.2 0.00 0.00 0.00 52 1005.6
20260902185513 28 140 25.7 45.1 0.00 0.00 0.00 51 1005.7
20260902185013 28 150 25.7 41.8 0.00 0.00 0.00 52 1005.6
20260902184510 28 132 20.9 35.4 0.00 0.00 0.00 52 1005.8
20260902184009 27 136 17.7 37.0 0.00 0.00 0.00 54 1006.0
20260902183508 27 123 20.9 37.0 0.00 0.00 0.00 54 1006.0
20260902183008 27 138 24.1 43.5 0.00 0.00 0.00 53 1006.2
20260902182607 27 131 17.7 35.4 0.00 0.00 0.00 53 1006.1
20260902181535 27 136 22.5 37.0 0.00 0.00 0.00 54 1006.3
20260902181034 27 140 19.3 38.6 0.00 0.00 0.00 53 1006.3
20260902180534 27 219 19.3 38.6 0.00 0.00 0.00 54 1006.4
20260902180033 27 137 20.9 33.8 0.00 0.00 0.00 54 1006.5
20260902175532 27 103 22.5 40.2 0.00 0.00 0.00 55 1006.7
20260902175034 27 134 25.7 40.2 0.00 0.00 0.00 55 1006.6
20260902174531 27 132 25.7 37.0 0.00 0.00 0.00 55 1006.6
20260902174031 27 134 22.5 35.4 0.00 0.00 0.00 55 1006.8
20260902173530 27 135 20.9 30.6 0.00 0.00 0.00 57 1006.9
20260902173029 26 152 14.5 35.4 0.00 0.00 0.00 57 1006.9
20260902172527 26 140 19.3 35.4 0.00 0.00 0.00 58 1006.9
20260902171531 26 128 20.9 35.4 0.00 0.00 0.00 59 1007.2
20260902171030 26 154 19.3 33.8 0.00 0.00 0.00 60 1007.0
20260902170533 26 130 22.5 33.8 0.00 0.00 0.00 60 1007.2
20260902170029 25 136 20.9 32.2 0.00 0.00 0.00 61 1007.3
20260902165528 25 119 17.7 32.2 0.00 0.00 0.00 60 1007.5
20260902165027 25 144 20.9 33.8 0.00 0.00 0.00 60 1007.3
20260902164527 25 137 24.1 33.8 0.00 0.00 0.00 60 1007.3
20260902164026 25 123 14.5 27.4 0.00 0.00 0.00 61 1007.3
20260902163526 25 130 17.7 27.4 0.00 0.00 0.00 61 1007.3
20260902163025 25 169 12.9 27.4 0.00 0.00 0.00 62 1007.5
20260902162624 24 140 17.7 27.4 0.00 0.00 0.00 63 1007.5
20260902161519 23 138 16.1 29.0 0.00 0.00 0.00 67 1007.6
20260902161018 23 121 19.3 29.0 0.00 0.00 0.00 67 1007.7
20260902160516 23 141 16.1 24.1 0.00 0.00 0.00 68 1007.8
20260902160017 22 142 14.5 24.1 0.00 0.00 0.00 68 1007.7
20260902155515 22 136 14.5 22.5 0.00 0.00 0.00 68 1007.9
20260902155014 22 140 11.3 22.5 0.00 0.00 0.00 70 1007.8
20260902154512 22 175 9.7 22.5 0.00 0.00 0.00 71 1008.0
20260902154011 22 141 12.9 20.9 0.00 0.00 0.00 72 1008.2
20260902153510 21 141 11.3 24.1 0.00 0.00 0.00 73 1008.3
20260902153009 21 159 9.7 20.9 0.00 0.00 0.00 73 1008.5
20260902152508 20 207 8.0 22.5 0.00 0.00 0.00 73 1008.3
20260902151507 20 120 12.9 24.1 0.00 0.00 0.00 72 1008.5
20260902151009 20 146 16.1 24.1 0.00 0.00 0.00 71 1008.5
20260902150507 20 142 16.1 24.1 0.00 0.00 0.00 70 1008.6
20260902150006 20 144 16.1 22.5 0.00 0.00 0.00 67 1008.8
20260902145502 20 116 14.5 20.9 0.00 0.00 0.00 68 1008.6
20260902145100 19 144 16.1 22.5 0.00 0.00 0.00 67 1008.8
20260902144559 19 139 14.5 20.9 0.00 0.00 0.00 68 1008.8
20260902144058 18 163 11.3 17.7 0.00 0.00 0.00 67 1008.8
20260902143557 18 142 11.3 17.7 0.00 0.00 0.00 67 1008.8
20260902143056 18 126 9.7 17.7 0.00 0.00 0.00 67 1008.7
20260902142555 18 119 11.3 17.7 0.00 0.00 0.00 67 1008.8
20260902141559 18 143 8.0 16.1 0.00 0.00 0.00 68 1008.8
20260902141055 17 144 4.8 12.9 0.00 0.00 0.00 68 1008.9
20260902140553 17 174 8.0 14.5 0.00 0.00 0.00 68 1009.0
20260902140052 17 153 6.4 16.1 0.00 0.00 0.00 68 1008.9
20260902135551 17 161 6.4 16.1 0.00 0.00 0.00 69 1009.0
20260902135052 16 156 0.0 8.0 0.00 0.00 0.00 71 1009.0
20260902134551 16 156 0.0 4.8 0.00 0.00 0.00 71 1008.9
20260902134051 16 156 1.6 4.8 0.00 0.00 0.00 73 1009.1
20260902133551 15 156 1.6 4.8 0.00 0.00 0.00 74 1009.2
20260902133052 15 156 0.0 8.0 0.00 0.00 0.00 75 1009.2
20260902132553 14 156 0.0 8.0 0.00 0.00 0.00 77 1009.2
20260902131547 13 157 0.0 3.2 0.00 0.00 0.00 81 1009.1
20260902131047 12 147 0.0 3.2 0.00 0.00 0.00 81 1009.2
20260902130546 12 147 1.6 3.2 0.00 0.00 0.00 82 1009.3
20260902130046 12 147 1.6 3.2 0.00 0.00 0.00 83 1009.2
20260902125550 11 147 0.0 1.6 0.00 0.00 0.00 81 1009.3